COSMOS 2504

导读

COSMOS 2504(宇宙2504号)是独联体(CIS)于2015年3月31日08:00发射的军用卫星,国际卫星标识符为2015-020D,北大西洋公约组织编号40555。卫星主体呈六棱柱结构,搭配天线装置,尺寸约1×0.4×1米,质量仅45千克,属小型卫星范畴,主要承担俄罗斯军事航天相关的技术试验与空间态势感知任务,延续了苏联/俄罗斯“宇宙”系列卫星的航天部署布局。

Basic Information
目录编号:
40555
目录名称:
COSMOS 2504
国际标识:
2015-020D
轨道中心:
EARTH
卫星名称:
COSMOS 2504
卫星全名:
--
卫星状态:
在轨 (已飞行4123 天)
发射日期:
2015-03-31 UTC
国别 :
俄罗斯(独联体) (CIS)
星等 :
--
Orbit Information
数据来源 国际轨道数据
星历时间: 2026-07-14T04:47:27+0800
8小时前
查看轨道信息
半长轴: 7408.765km
偏心率: 0.0607153
轨道倾角: 82.516°
近地点辐角 201.676°
升交点赤经 210.673°
平近点角 155.766°
近地点: 580.802km
远地点: 1480.454km
周期: 105.774分钟
每日圈数: 13.613949
Detailed Information
使用方式:
暂无
2D Orbit Map
3D Orbit Map
Orbit Altitude Analysis Chart
Orbit Inclination Analysis Chart
Orbit Comprehensive Analysis Chart
View Comprehensive Chart